| time (UTC) | temp F | wind direction | speed MPH | gust MPH | rain 1hr in | rain 24hr in | rain mn in | humidity % | barometer mb |
| 20260902024003 | 76 | 203 | 0.0 | 0.0 | 0.00 | 0.00 | 0.00 | 84 | 1020.0 |
| 20260902023503 | 76 | 203 | 0.0 | 0.0 | 0.00 | 0.00 | 0.00 | 83 | 1020.0 |
| 20260902023008 | 76 | 203 | 0.0 | 0.0 | 0.00 | 0.00 | 0.00 | 82 | 1019.9 |
| 20260902022507 | 76 | 203 | 0.0 | 0.0 | 0.00 | 0.00 | 0.00 | 82 | 1019.8 |
| 20260902022007 | 76 | 203 | 0.0 | 0.0 | 0.00 | 0.00 | 0.00 | 82 | 1019.8 |
| 20260902021521 | 77 | 203 | 0.0 | 0.0 | 0.00 | 0.00 | 0.00 | 82 | 1019.7 |
| 20260902021007 | 77 | 203 | 0.0 | 0.0 | 0.00 | 0.00 | 0.00 | 81 | 1019.7 |
| 20260902020512 | 77 | 203 | 0.0 | 1.0 | 0.00 | 0.00 | 0.00 | 81 | 1019.7 |
| 20260902020030 | 77 | 203 | 0.0 | 1.0 | 0.00 | 0.00 | 0.00 | 80 | 1019.6 |
| 20260902015513 | 78 | 203 | 0.0 | 1.0 | 0.00 | 0.00 | 0.00 | 80 | 1019.6 |
| 20260902015014 | 78 | 203 | 0.0 | 0.0 | 0.00 | 0.00 | 0.00 | 79 | 1019.6 |
| 20260902014543 | 78 | 203 | 0.0 | 2.0 | 0.00 | 0.00 | 0.00 | 79 | 1019.5 |
| 20260902014014 | 78 | 203 | 0.0 | 2.0 | 0.00 | 0.00 | 0.00 | 79 | 1019.5 |
| 20260902013514 | 78 | 203 | 0.0 | 0.0 | 0.00 | 0.00 | 0.00 | 79 | 1019.4 |
| 20260902013005 | 78 | 203 | 0.0 | 0.0 | 0.00 | 0.00 | 0.00 | 79 | 1019.3 |
| 20260902012507 | 78 | 203 | 0.0 | 0.0 | 0.00 | 0.00 | 0.00 | 77 | 1019.3 |
| 20260902012005 | 79 | 203 | 0.0 | 0.0 | 0.00 | 0.00 | 0.00 | 77 | 1019.3 |
| 20260902011513 | 79 | 203 | 0.0 | 2.0 | 0.00 | 0.00 | 0.00 | 77 | 1019.3 |
| 20260902011004 | 79 | 203 | 0.0 | 2.0 | 0.00 | 0.00 | 0.00 | 76 | 1019.2 |
| 20260902010507 | 80 | 203 | 0.0 | 2.0 | 0.00 | 0.00 | 0.00 | 75 | 1019.1 |
| 20260902010020 | 80 | 203 | 0.0 | 2.0 | 0.00 | 0.00 | 0.00 | 75 | 1019.1 |
| 20260902005508 | 81 | 203 | 0.0 | 2.0 | 0.00 | 0.00 | 0.00 | 74 | 1019.2 |
| 20260902005014 | 81 | 203 | 1.0 | 2.0 | 0.00 | 0.00 | 0.00 | 73 | 1019.1 |
| 20260902004530 | 81 | 203 | 0.0 | 3.0 | 0.00 | 0.00 | 0.00 | 72 | 1019.1 |
| 20260902004017 | 82 | 203 | 1.0 | 3.0 | 0.00 | 0.00 | 0.00 | 72 | 1019.1 |
| 20260902003513 | 82 | 203 | 1.0 | 2.0 | 0.00 | 0.00 | 0.00 | 70 | 1019.1 |
| 20260902003034 | 82 | 203 | 1.0 | 2.0 | 0.00 | 0.00 | 0.00 | 72 | 1019.1 |
| 20260902002514 | 83 | 203 | 0.0 | 1.0 | 0.00 | 0.00 | 0.00 | 71 | 1019.1 |
| 20260902002013 | 84 | 203 | 0.0 | 1.0 | 0.00 | 0.00 | 0.00 | 70 | 1019.0 |
| 20260902001532 | 85 | 203 | 0.0 | 1.0 | 0.00 | 0.00 | 0.00 | 69 | 1019.0 |
| 20260902001003 | 85 | 172 | 0.0 | 1.0 | 0.00 | 0.00 | 0.00 | 66 | 1019.0 |
| 20260902000509 | 86 | 172 | 0.0 | 1.0 | 0.00 | 0.00 | 0.00 | 64 | 1018.9 |
| 20260902000025 | 87 | 172 | 0.0 | 1.0 | 0.00 | 0.00 | 0.00 | 63 | 1018.9 |
| 20260901235512 | 88 | 5 | 0.0 | 0.0 | 0.00 | 0.00 | 0.00 | 61 | 1019.0 |
| 20260901235009 | 88 | 227 | 0.0 | 0.0 | 0.00 | 0.00 | 0.00 | 59 | 1019.0 |
| 20260901234536 | 89 | 227 | 0.0 | 0.0 | 0.00 | 0.00 | 0.00 | 57 | 1019.1 |
| 20260901234013 | 90 | 228 | 0.0 | 0.0 | 0.00 | 0.00 | 0.00 | 56 | 1019.1 |
| 20260901233520 | 91 | 302 | 0.0 | 0.0 | 0.00 | 0.00 | 0.00 | 55 | 1019.1 |
| 20260901233028 | 91 | 302 | 0.0 | 1.0 | 0.00 | 0.00 | 0.00 | 54 | 1019.1 |
| 20260901232513 | 92 | 302 | 0.0 | 2.0 | 0.00 | 0.00 | 0.00 | 53 | 1018.9 |
| 20260901232020 | 92 | 302 | 0.0 | 2.0 | 0.00 | 0.00 | 0.00 | 53 | 1019.1 |
| 20260901231534 | 92 | 302 | 0.0 | 3.0 | 0.00 | 0.00 | 0.00 | 54 | 1019.1 |
| 20260901231014 | 92 | 302 | 1.0 | 3.0 | 0.00 | 0.00 | 0.00 | 53 | 1019.2 |
| 20260901230515 | 92 | 302 | 0.0 | 2.0 | 0.00 | 0.00 | 0.00 | 52 | 1019.2 |
| 20260901230036 | 92 | 302 | 1.0 | 3.0 | 0.00 | 0.00 | 0.00 | 52 | 1019.1 |
| 20260901225508 | 92 | 300 | 0.0 | 3.0 | 0.00 | 0.00 | 0.00 | 54 | 1019.1 |
| 20260901225008 | 92 | 300 | 0.0 | 4.0 | 0.00 | 0.00 | 0.00 | 52 | 1019.1 |
| 20260901224517 | 92 | 300 | 2.0 | 4.0 | 0.00 | 0.00 | 0.00 | 52 | 1019.1 |
| 20260901224009 | 93 | 219 | 0.0 | 4.0 | 0.00 | 0.00 | 0.00 | 53 | 1019.1 |
| 20260901223510 | 92 | 219 | 0.0 | 4.0 | 0.00 | 0.00 | 0.00 | 51 | 1019.1 |
| 20260901223025 | 93 | 337 | 1.0 | 4.0 | 0.00 | 0.00 | 0.00 | 53 | 1019.1 |
| 20260901222516 | 93 | 267 | 1.0 | 4.0 | 0.00 | 0.00 | 0.00 | 52 | 1019.1 |
| 20260901222011 | 93 | 13 | 1.0 | 4.0 | 0.00 | 0.00 | 0.00 | 51 | 1019.0 |
| 20260901221557 | 93 | 296 | 0.0 | 5.0 | 0.00 | 0.00 | 0.00 | 50 | 1019.1 |
| 20260901221013 | 93 | 334 | 2.0 | 7.0 | 0.00 | 0.00 | 0.00 | 51 | 1019.1 |
| 20260901220515 | 93 | 5 | 1.0 | 7.0 | 0.00 | 0.00 | 0.00 | 52 | 1019.0 |
| 20260901220031 | 93 | 355 | 3.0 | 8.0 | 0.00 | 0.00 | 0.00 | 50 | 1019.1 |
| 20260901215515 | 93 | 290 | 1.0 | 8.0 | 0.00 | 0.00 | 0.00 | 53 | 1019.1 |
| 20260901215022 | 93 | 5 | 2.0 | 8.0 | 0.00 | 0.00 | 0.00 | 51 | 1019.1 |
| 20260901214531 | 94 | 281 | 1.0 | 4.0 | 0.00 | 0.00 | 0.00 | 51 | 1019.1 |
| 20260901214017 | 93 | 343 | 1.0 | 5.0 | 0.00 | 0.00 | 0.00 | 49 | 1019.2 |
| 20260901213509 | 93 | 292 | 1.0 | 7.0 | 0.00 | 0.00 | 0.00 | 52 | 1019.2 |
| 20260901213019 | 93 | 318 | 1.0 | 7.0 | 0.00 | 0.00 | 0.00 | 49 | 1019.1 |
| 20260901212511 | 93 | 266 | 2.0 | 7.0 | 0.00 | 0.00 | 0.00 | 53 | 1019.1 |
| 20260901212016 | 94 | 288 | 2.0 | 5.0 | 0.00 | 0.00 | 0.00 | 50 | 1019.1 |
| 20260901211533 | 94 | 61 | 2.0 | 6.0 | 0.00 | 0.00 | 0.00 | 48 | 1019.1 |
| 20260901211014 | 94 | 326 | 3.0 | 6.0 | 0.00 | 0.00 | 0.00 | 47 | 1019.2 |
| 20260901210515 | 95 | 340 | 2.0 | 6.0 | 0.00 | 0.00 | 0.00 | 47 | 1019.2 |
| 20260901210033 | 94 | 41 | 2.0 | 6.0 | 0.00 | 0.00 | 0.00 | 48 | 1019.3 |
| 20260901205513 | 93 | 352 | 1.0 | 8.0 | 0.00 | 0.00 | 0.00 | 50 | 1019.3 |
| 20260901205018 | 94 | 24 | 4.0 | 8.0 | 0.00 | 0.00 | 0.00 | 48 | 1019.3 |
| 20260901204535 | 93 | 46 | 2.0 | 9.0 | 0.00 | 0.00 | 0.00 | 50 | 1019.3 |
| 20260901204015 | 93 | 329 | 4.0 | 9.0 | 0.00 | 0.00 | 0.00 | 50 | 1019.4 |
| 20260901203504 | 94 | 342 | 3.0 | 8.0 | 0.00 | 0.00 | 0.00 | 51 | 1019.4 |
| 20260901203003 | 94 | 315 | 1.0 | 5.0 | 0.00 | 0.00 | 0.00 | 48 | 1019.6 |
| 20260901202502 | 93 | 292 | 3.0 | 7.0 | 0.00 | 0.00 | 0.00 | 51 | 1019.6 |
| 20260901202001 | 93 | 327 | 1.0 | 7.0 | 0.00 | 0.00 | 0.00 | 50 | 1019.7 |
| 20260901201513 | 94 | 255 | 1.0 | 6.0 | 0.00 | 0.00 | 0.00 | 49 | 1019.8 |
| 20260901201003 | 94 | 360 | 1.0 | 5.0 | 0.00 | 0.00 | 0.00 | 55 | 1019.7 |
| 20260901200503 | 94 | 293 | 1.0 | 6.0 | 0.00 | 0.00 | 0.00 | 49 | 1019.7 |
| 20260901200005 | 94 | 274 | 2.0 | 6.0 | 0.00 | 0.00 | 0.00 | 49 | 1019.7 |
| 20260901195502 | 94 | 315 | 0.0 | 8.0 | 0.00 | 0.00 | 0.00 | 51 | 1019.7 |
| 20260901195006 | 93 | 219 | 2.0 | 8.0 | 0.00 | 0.00 | 0.00 | 49 | 1019.8 |
| 20260901194509 | 93 | 292 | 1.0 | 9.0 | 0.00 | 0.00 | 0.00 | 50 | 1019.9 |
| 20260901194007 | 94 | 355 | 3.0 | 9.0 | 0.00 | 0.00 | 0.00 | 49 | 1020.0 |
| 20260901193507 | 94 | 308 | 2.0 | 7.0 | 0.00 | 0.00 | 0.00 | 51 | 1020.1 |
| 20260901193014 | 94 | 257 | 3.0 | 8.0 | 0.00 | 0.00 | 0.00 | 52 | 1020.1 |
| 20260901192505 | 94 | 13 | 3.0 | 9.0 | 0.00 | 0.00 | 0.00 | 52 | 1020.2 |
| 20260901192007 | 93 | 213 | 4.0 | 9.0 | 0.00 | 0.00 | 0.00 | 51 | 1020.3 |
| 20260901191517 | 93 | 227 | 1.0 | 8.0 | 0.00 | 0.00 | 0.00 | 52 | 1020.3 |
| 20260901191005 | 94 | 263 | 3.0 | 8.0 | 0.00 | 0.00 | 0.00 | 49 | 1020.3 |
| 20260901190503 | 93 | 242 | 1.0 | 8.0 | 0.00 | 0.00 | 0.00 | 52 | 1020.4 |
| 20260901190010 | 93 | 244 | 3.0 | 9.0 | 0.00 | 0.00 | 0.00 | 50 | 1020.3 |
| 20260901185503 | 93 | 228 | 4.0 | 9.0 | 0.00 | 0.00 | 0.00 | 51 | 1020.4 |
| 20260901185002 | 94 | 238 | 3.0 | 7.0 | 0.00 | 0.00 | 0.00 | 48 | 1020.4 |
| 20260901184506 | 93 | 338 | 1.0 | 5.0 | 0.00 | 0.00 | 0.00 | 53 | 1020.4 |
| 20260901184003 | 93 | 42 | 1.0 | 9.0 | 0.00 | 0.00 | 0.00 | 54 | 1020.5 |
| 20260901183504 | 92 | 5 | 3.0 | 9.0 | 0.00 | 0.00 | 0.00 | 50 | 1020.6 |
| 20260901183011 | 92 | 216 | 3.0 | 7.0 | 0.00 | 0.00 | 0.00 | 56 | 1020.6 |
| 20260901182507 | 91 | 240 | 3.0 | 7.0 | 0.00 | 0.00 | 0.00 | 53 | 1020.6 |
| 20260901182008 | 92 | 237 | 1.0 | 7.0 | 0.00 | 0.00 | 0.00 | 55 | 1020.6 |
| 20260901181519 | 92 | 294 | 2.0 | 7.0 | 0.00 | 0.00 | 0.00 | 56 | 1020.7 |
| 20260901181007 | 92 | 259 | 1.0 | 6.0 | 0.00 | 0.00 | 0.00 | 53 | 1020.7 |
| 20260901180506 | 92 | 276 | 2.0 | 6.0 | 0.00 | 0.00 | 0.00 | 57 | 1020.8 |
| 20260901180017 | 92 | 302 | 2.0 | 6.0 | 0.00 | 0.00 | 0.00 | 52 | 1020.8 |
| 20260901175509 | 93 | 269 | 2.0 | 5.0 | 0.00 | 0.00 | 0.00 | 54 | 1020.9 |
| 20260901175007 | 92 | 118 | 1.0 | 4.0 | 0.00 | 0.00 | 0.00 | 55 | 1020.9 |
| 20260901174509 | 92 | 318 | 1.0 | 8.0 | 0.00 | 0.00 | 0.00 | 51 | 1021.0 |
| 20260901174003 | 93 | 271 | 2.0 | 12.0 | 0.00 | 0.00 | 0.00 | 55 | 1021.0 |
| 20260901173504 | 92 | 5 | 4.0 | 12.0 | 0.00 | 0.00 | 0.00 | 60 | 1021.0 |
| 20260901173008 | 91 | 94 | 3.0 | 6.0 | 0.00 | 0.00 | 0.00 | 56 | 1021.1 |
| 20260901172505 | 91 | 241 | 2.0 | 6.0 | 0.00 | 0.00 | 0.00 | 57 | 1021.3 |
| 20260901172004 | 90 | 192 | 1.0 | 7.0 | 0.00 | 0.00 | 0.00 | 55 | 1021.4 |
| 20260901171511 | 91 | 184 | 0.0 | 7.0 | 0.00 | 0.00 | 0.00 | 61 | 1021.5 |
| 20260901171007 | 90 | 290 | 3.0 | 7.0 | 0.00 | 0.00 | 0.00 | 55 | 1021.6 |
| 20260901170513 | 92 | 317 | 3.0 | 7.0 | 0.00 | 0.00 | 0.00 | 55 | 1021.7 |
| 20260901170020 | 91 | 217 | 1.0 | 8.0 | 0.00 | 0.00 | 0.00 | 58 | 1021.8 |
| 20260901165507 | 91 | 288 | 2.0 | 9.0 | 0.00 | 0.00 | 0.00 | 54 | 1021.8 |
| 20260901165010 | 90 | 260 | 4.0 | 9.0 | 0.00 | 0.00 | 0.00 | 57 | 1021.9 |
| 20260901164524 | 91 | 298 | 3.0 | 6.0 | 0.00 | 0.00 | 0.00 | 56 | 1021.8 |
| 20260901164011 | 90 | 257 | 2.0 | 8.0 | 0.00 | 0.00 | 0.00 | 59 | 1021.9 |
| 20260901163511 | 90 | 28 | 3.0 | 9.0 | 0.00 | 0.00 | 0.00 | 58 | 1021.9 |
| 20260901163007 | 90 | 329 | 4.0 | 9.0 | 0.00 | 0.00 | 0.00 | 57 | 1021.9 |
| 20260901162504 | 90 | 309 | 2.0 | 8.0 | 0.00 | 0.00 | 0.00 | 58 | 1022.0 |
| 20260901162004 | 90 | 27 | 2.0 | 6.0 | 0.00 | 0.00 | 0.00 | 59 | 1022.0 |
| 20260901161521 | 90 | 329 | 1.0 | 8.0 | 0.00 | 0.00 | 0.00 | 60 | 1022.1 |
| 20260901161009 | 89 | 317 | 2.0 | 8.0 | 0.00 | 0.00 | 0.00 | 62 | 1022.0 |
| 20260901160507 | 89 | 229 | 3.0 | 10.0 | 0.00 | 0.00 | 0.00 | 61 | 1022.1 |
| 20260901160032 | 89 | 336 | 3.0 | 10.0 | 0.00 | 0.00 | 0.00 | 58 | 1022.1 |
| 20260901155507 | 90 | 88 | 2.0 | 5.0 | 0.00 | 0.00 | 0.00 | 62 | 1022.1 |
| 20260901155013 | 90 | 333 | 2.0 | 5.0 | 0.00 | 0.00 | 0.00 | 60 | 1022.1 |
| 20260901154525 | 89 | 259 | 0.0 | 8.0 | 0.00 | 0.00 | 0.00 | 62 | 1022.1 |
| 20260901154010 | 88 | 336 | 1.0 | 9.0 | 0.00 | 0.00 | 0.00 | 63 | 1022.0 |
| 20260901153511 | 88 | 248 | 3.0 | 9.0 | 0.00 | 0.00 | 0.00 | 62 | 1022.0 |
| 20260901153027 | 89 | 299 | 3.0 | 7.0 | 0.00 | 0.00 | 0.00 | 60 | 1022.1 |
| 20260901152513 | 89 | 305 | 2.0 | 4.0 | 0.00 | 0.00 | 0.00 | 62 | 1022.1 |
| 20260901152013 | 89 | 302 | 1.0 | 4.0 | 0.00 | 0.00 | 0.00 | 63 | 1022.1 |
| 20260901151507 | 88 | 277 | 1.0 | 4.0 | 0.00 | 0.00 | 0.00 | 64 | 1022.2 |
| 20260901151005 | 88 | 259 | 2.0 | 4.0 | 0.00 | 0.00 | 0.00 | 61 | 1022.2 |
| 20260901150504 | 88 | 260 | 1.0 | 4.0 | 0.00 | 0.00 | 0.00 | 62 | 1022.2 |
| 20260901150013 | 87 | 301 | 0.0 | 4.0 | 0.00 | 0.00 | 0.00 | 65 | 1022.2 |
| 20260901145506 | 87 | 223 | 1.0 | 4.0 | 0.00 | 0.00 | 0.00 | 66 | 1022.2 |
| 20260901145006 | 87 | 223 | 2.0 | 5.0 | 0.00 | 0.00 | 0.00 | 66 | 1022.2 |
| 20260901144515 | 86 | 215 | 2.0 | 5.0 | 0.00 | 0.00 | 0.00 | 67 | 1022.2 |
| 20260901144008 | 86 | 215 | 0.0 | 4.0 | 0.00 | 0.00 | 0.00 | 67 | 1022.2 |
| 20260901143512 | 86 | 215 | 1.0 | 4.0 | 0.00 | 0.00 | 0.00 | 69 | 1022.1 |
| 20260901143024 | 85 | 265 | 1.0 | 3.0 | 0.00 | 0.00 | 0.00 | 72 | 1022.1 |
| 20260901142512 | 84 | 229 | 1.0 | 4.0 | 0.00 | 0.00 | 0.00 | 71 | 1022.1 |
| 20260901142013 | 84 | 202 | 1.0 | 4.0 | 0.00 | 0.00 | 0.00 | 72 | 1022.2 |
| 20260901141527 | 83 | 202 | 2.0 | 3.0 | 0.00 | 0.00 | 0.00 | 73 | 1022.2 |
| 20260901141014 | 83 | 204 | 1.0 | 3.0 | 0.00 | 0.00 | 0.00 | 74 | 1022.2 |
| 20260901140514 | 82 | 204 | 0.0 | 4.0 | 0.00 | 0.00 | 0.00 | 77 | 1022.2 |
| 20260901140029 | 81 | 204 | 1.0 | 4.0 | 0.00 | 0.00 | 0.00 | 79 | 1022.3 |
| 20260901135506 | 80 | 194 | 2.0 | 4.0 | 0.00 | 0.00 | 0.00 | 79 | 1022.3 |
| 20260901135004 | 80 | 161 | 2.0 | 4.0 | 0.00 | 0.00 | 0.00 | 81 | 1022.3 |
| 20260901134530 | 79 | 183 | 1.0 | 4.0 | 0.00 | 0.00 | 0.00 | 85 | 1022.3 |
| 20260901134009 | 78 | 173 | 1.0 | 3.0 | 0.00 | 0.00 | 0.00 | 88 | 1022.4 |
| 20260901133508 | 77 | 152 | 1.0 | 3.0 | 0.00 | 0.00 | 0.00 | 91 | 1022.4 |
| 20260901133021 | 76 | 147 | 1.0 | 3.0 | 0.00 | 0.00 | 0.00 | 93 | 1022.3 |
| 20260901132510 | 75 | 115 | 1.0 | 3.0 | 0.00 | 0.00 | 0.00 | 95 | 1022.3 |
| 20260901132011 | 75 | 63 | 0.0 | 0.0 | 0.00 | 0.00 | 0.00 | 97 | 1022.2 |
| 20260901131526 | 74 | 63 | 0.0 | 0.0 | 0.00 | 0.00 | 0.00 | 97 | 1022.2 |
| 20260901131015 | 74 | 136 | 0.0 | 0.0 | 0.00 | 0.00 | 0.00 | 97 | 1022.3 |
| 20260901130516 | 73 | 118 | 0.0 | 0.0 | 0.00 | 0.00 | 0.00 | 97 | 1022.2 |
| 20260901130033 | 72 | 118 | 0.0 | 1.0 | 0.00 | 0.00 | 0.00 | 97 | 1022.2 |
| 20260901125516 | 72 | 118 | 0.0 | 1.0 | 0.00 | 0.00 | 0.00 | 97 | 1022.2 |
| 20260901125014 | 72 | 274 | 0.0 | 1.0 | 0.00 | 0.00 | 0.00 | 97 | 1022.1 |
| 20260901124533 | 71 | 111 | 0.0 | 1.0 | 0.00 | 0.00 | 0.00 | 97 | 1022.1 |
| 20260901124013 | 71 | 104 | 0.0 | 0.0 | 0.00 | 0.00 | 0.00 | 97 | 1022.1 |
| 20260901123506 | 70 | 105 | 0.0 | 0.0 | 0.00 | 0.00 | 0.00 | 97 | 1022.1 |
| 20260901123016 | 69 | 107 | 0.0 | 0.0 | 0.00 | 0.00 | 0.00 | 97 | 1022.0 |
| 20260901122509 | 69 | 107 | 0.0 | 0.0 | 0.00 | 0.00 | 0.00 | 96 | 1021.9 |
| 20260901122012 | 69 | 125 | 0.0 | 0.0 | 0.00 | 0.00 | 0.00 | 96 | 1021.9 |
| 20260901121521 | 68 | 125 | 0.0 | 0.0 | 0.00 | 0.00 | 0.00 | 96 | 1021.8 |
| 20260901121014 | 68 | 165 | 0.0 | 0.0 | 0.00 | 0.00 | 0.00 | 96 | 1021.8 |
| 20260901120516 | 68 | 104 | 0.0 | 0.0 | 0.00 | 0.00 | 0.00 | 96 | 1021.7 |
| 20260901120031 | 68 | 104 | 0.0 | 0.0 | 0.00 | 0.00 | 0.00 | 96 | 1021.6 |
| 20260901115515 | 68 | 104 | 0.0 | 0.0 | 0.00 | 0.00 | 0.00 | 96 | 1021.5 |
| 20260901115023 | 68 | 104 | 0.0 | 0.0 | 0.00 | 0.00 | 0.00 | 95 | 1021.4 |
| 20260901114536 | 68 | 104 | 0.0 | 0.0 | 0.00 | 0.00 | 0.00 | 95 | 1021.3 |
| 20260901114017 | 68 | 104 | 0.0 | 1.0 | 0.00 | 0.00 | 0.00 | 95 | 1021.2 |
| 20260901113505 | 68 | 104 | 0.0 | 1.0 | 0.00 | 0.00 | 0.00 | 95 | 1021.1 |
| 20260901113017 | 68 | 76 | 0.0 | 1.0 | 0.00 | 0.00 | 0.00 | 95 | 1021.0 |
| 20260901112506 | 68 | 92 | 0.0 | 0.0 | 0.00 | 0.00 | 0.00 | 95 | 1020.9 |
| 20260901112011 | 68 | 92 | 0.0 | 0.0 | 0.00 | 0.00 | 0.00 | 95 | 1020.8 |
| 20260901111523 | 68 | 92 | 0.0 | 0.0 | 0.00 | 0.00 | 0.00 | 95 | 1020.7 |
| 20260901111010 | 68 | 92 | 0.0 | 0.0 | 0.00 | 0.00 | 0.00 | 95 | 1020.7 |
| 20260901110513 | 68 | 92 | 0.0 | 2.0 | 0.00 | 0.00 | 0.00 | 95 | 1020.7 |
| 20260901110005 | 68 | 92 | 0.0 | 2.0 | 0.00 | 0.00 | 0.00 | 95 | 1020.7 |
| 20260901105502 | 68 | 92 | 0.0 | 3.0 | 0.00 | 0.00 | 0.00 | 95 | 1020.6 |
| 20260901105005 | 68 | 92 | 0.0 | 3.0 | 0.00 | 0.00 | 0.00 | 95 | 1020.7 |
| 20260901104508 | 68 | 92 | 0.0 | 0.0 | 0.00 | 0.00 | 0.00 | 95 | 1020.6 |
| 20260901104003 | 68 | 92 | 0.0 | 0.0 | 0.00 | 0.00 | 0.00 | 95 | 1020.5 |
| 20260901103504 | 67 | 92 | 0.0 | 0.0 | 0.00 | 0.00 | 0.00 | 94 | 1020.5 |
| 20260901103013 | 68 | 92 | 0.0 | 0.0 | 0.00 | 0.00 | 0.00 | 94 | 1020.5 |
| 20260901102506 | 68 | 92 | 0.0 | 0.0 | 0.00 | 0.00 | 0.00 | 94 | 1020.4 |
| 20260901102006 | 68 | 92 | 0.0 | 0.0 | 0.00 | 0.00 | 0.00 | 94 | 1020.4 |
| 20260901101527 | 68 | 92 | 0.0 | 0.0 | 0.00 | 0.00 | 0.00 | 94 | 1020.4 |
| 20260901101009 | 68 | 92 | 0.0 | 0.0 | 0.00 | 0.00 | 0.00 | 94 | 1020.5 |
| 20260901100514 | 68 | 92 | 0.0 | 0.0 | 0.00 | 0.00 | 0.00 | 94 | 1020.5 |
| 20260901100027 | 68 | 92 | 0.0 | 0.0 | 0.00 | 0.00 | 0.00 | 94 | 1020.4 |
| 20260901095513 | 68 | 92 | 0.0 | 0.0 | 0.00 | 0.00 | 0.00 | 94 | 1020.4 |
| 20260901095015 | 69 | 92 | 0.0 | 0.0 | 0.00 | 0.00 | 0.00 | 94 | 1020.3 |
| 20260901094530 | 68 | 92 | 0.0 | 0.0 | 0.00 | 0.00 | 0.00 | 94 | 1020.3 |
| 20260901094002 | 69 | 92 | 0.0 | 0.0 | 0.00 | 0.00 | 0.00 | 94 | 1020.3 |
| 20260901093503 | 69 | 92 | 0.0 | 0.0 | 0.00 | 0.00 | 0.00 | 94 | 1020.3 |
| 20260901093017 | 69 | 92 | 0.0 | 0.0 | 0.00 | 0.00 | 0.00 | 94 | 1020.2 |
| 20260901092505 | 69 | 92 | 0.0 | 0.0 | 0.00 | 0.00 | 0.00 | 93 | 1020.3 |
| 20260901092008 | 69 | 92 | 0.0 | 0.0 | 0.00 | 0.00 | 0.00 | 93 | 1020.3 |
| 20260901091515 | 69 | 92 | 0.0 | 0.0 | 0.00 | 0.00 | 0.00 | 93 | 1020.2 |
| 20260901091009 | 69 | 92 | 0.0 | 0.0 | 0.00 | 0.00 | 0.00 | 93 | 1020.2 |
| 20260901090508 | 69 | 92 | 0.0 | 0.0 | 0.00 | 0.00 | 0.00 | 93 | 1020.2 |
| 20260901090028 | 69 | 92 | 0.0 | 0.0 | 0.00 | 0.00 | 0.00 | 93 | 1020.2 |
| 20260901085510 | 69 | 92 | 0.0 | 0.0 | 0.00 | 0.00 | 0.00 | 93 | 1020.2 |
| 20260901085012 | 69 | 92 | 0.0 | 0.0 | 0.00 | 0.00 | 0.00 | 93 | 1020.2 |
| 20260901084533 | 69 | 92 | 0.0 | 0.0 | 0.00 | 0.00 | 0.00 | 93 | 1020.2 |
| 20260901084015 | 69 | 92 | 0.0 | 0.0 | 0.00 | 0.00 | 0.00 | 93 | 1020.2 |
| 20260901083514 | 69 | 92 | 0.0 | 0.0 | 0.00 | 0.00 | 0.00 | 93 | 1020.2 |
| 20260901083036 | 69 | 92 | 0.0 | 0.0 | 0.00 | 0.00 | 0.00 | 93 | 1020.2 |
| 20260901082502 | 69 | 92 | 0.0 | 0.0 | 0.00 | 0.00 | 0.00 | 93 | 1020.1 |
| 20260901082005 | 69 | 92 | 0.0 | 0.0 | 0.00 | 0.00 | 0.00 | 93 | 1020.0 |
| 20260901081511 | 69 | 92 | 0.0 | 0.0 | 0.00 | 0.00 | 0.00 | 93 | 1020.0 |
| 20260901081010 | 69 | 92 | 0.0 | 0.0 | 0.00 | 0.00 | 0.00 | 92 | 1020.0 |
| 20260901080506 | 69 | 92 | 0.0 | 0.0 | 0.00 | 0.00 | 0.00 | 92 | 1020.1 |
| 20260901080017 | 69 | 92 | 0.0 | 0.0 | 0.00 | 0.00 | 0.00 | 93 | 1020.1 |
| 20260901075510 | 70 | 92 | 0.0 | 0.0 | 0.00 | 0.00 | 0.00 | 92 | 1020.1 |
| 20260901075008 | 70 | 92 | 0.0 | 0.0 | 0.00 | 0.00 | 0.00 | 93 | 1020.0 |
| 20260901074527 | 70 | 92 | 0.0 | 0.0 | 0.00 | 0.00 | 0.00 | 93 | 1020.1 |
| 20260901074013 | 70 | 92 | 0.0 | 0.0 | 0.00 | 0.00 | 0.00 | 92 | 1020.1 |
| 20260901073512 | 70 | 92 | 0.0 | 0.0 | 0.00 | 0.00 | 0.00 | 92 | 1020.1 |
| 20260901073032 | 70 | 92 | 0.0 | 0.0 | 0.00 | 0.00 | 0.00 | 92 | 1020.1 |
| 20260901072514 | 70 | 92 | 0.0 | 0.0 | 0.00 | 0.00 | 0.00 | 92 | 1020.2 |
| 20260901072016 | 70 | 92 | 0.0 | 0.0 | 0.00 | 0.00 | 0.00 | 92 | 1020.2 |
| 20260901071531 | 70 | 92 | 0.0 | 0.0 | 0.00 | 0.00 | 0.00 | 91 | 1020.3 |
| 20260901071017 | 70 | 92 | 0.0 | 0.0 | 0.00 | 0.00 | 0.00 | 91 | 1020.3 |
| 20260901070508 | 70 | 92 | 0.0 | 0.0 | 0.00 | 0.00 | 0.00 | 91 | 1020.3 |
| 20260901070016 | 70 | 92 | 0.0 | 0.0 | 0.00 | 0.00 | 0.00 | 91 | 1020.3 |
| 20260901065506 | 70 | 92 | 0.0 | 0.0 | 0.00 | 0.00 | 0.00 | 91 | 1020.4 |
| 20260901065008 | 70 | 92 | 0.0 | 0.0 | 0.00 | 0.00 | 0.00 | 91 | 1020.3 |
| 20260901064528 | 71 | 92 | 0.0 | 0.0 | 0.00 | 0.00 | 0.00 | 91 | 1020.3 |
| 20260901064011 | 71 | 92 | 0.0 | 0.0 | 0.00 | 0.00 | 0.00 | 91 | 1020.3 |
| 20260901063511 | 71 | 92 | 0.0 | 0.0 | 0.00 | 0.00 | 0.00 | 91 | 1020.4 |
| 20260901063030 | 71 | 92 | 0.0 | 0.0 | 0.00 | 0.00 | 0.00 | 91 | 1020.4 |
| 20260901062515 | 71 | 92 | 0.0 | 0.0 | 0.00 | 0.00 | 0.00 | 91 | 1020.4 |
| 20260901062021 | 71 | 92 | 0.0 | 0.0 | 0.00 | 0.00 | 0.00 | 91 | 1020.4 |
| 20260901061530 | 71 | 92 | 0.0 | 0.0 | 0.00 | 0.00 | 0.00 | 91 | 1020.4 |
| 20260901061017 | 71 | 92 | 0.0 | 0.0 | 0.00 | 0.00 | 0.00 | 91 | 1020.4 |
| 20260901060517 | 71 | 92 | 0.0 | 0.0 | 0.00 | 0.00 | 0.00 | 91 | 1020.5 |
| 20260901060034 | 71 | 92 | 0.0 | 0.0 | 0.00 | 0.00 | 0.00 | 91 | 1020.5 |
| 20260901055520 | 71 | 92 | 0.0 | 0.0 | 0.00 | 0.00 | 0.00 | 90 | 1020.5 |
| 20260901055025 | 71 | 92 | 0.0 | 0.0 | 0.00 | 0.00 | 0.00 | 91 | 1020.4 |
| 20260901054516 | 71 | 92 | 0.0 | 0.0 | 0.00 | 0.00 | 0.00 | 90 | 1020.5 |
| 20260901054010 | 71 | 92 | 0.0 | 0.0 | 0.00 | 0.00 | 0.00 | 90 | 1020.5 |
| 20260901053717 | 72 | 92 | 0.0 | 0.0 | 0.00 | 0.00 | 0.00 | 90 | 1020.5 |
| 20260901053709 | 72 | 92 | 0.0 | 0.0 | 0.00 | 0.00 | 0.00 | 90 | 1020.6 |
| 20260901053702 | 72 | 92 | 0.0 | 0.0 | 0.00 | 0.00 | 0.00 | 90 | 1020.6 |
| 20260901053656 | 72 | 92 | 0.0 | 0.0 | 0.00 | 0.00 | 0.00 | 90 | 1020.7 |
| 20260901051003 | 72 | 92 | 0.0 | 0.0 | 0.00 | 0.00 | 0.00 | 90 | 1020.8 |
| 20260901050503 | 72 | 92 | 0.0 | 0.0 | 0.00 | 0.00 | 0.00 | 90 | 1020.7 |
| 20260901050009 | 72 | 92 | 0.0 | 0.0 | 0.00 | 0.00 | 0.00 | 90 | 1020.7 |
| 20260901045506 | 72 | 92 | 0.0 | 0.0 | 0.00 | 0.00 | 0.00 | 90 | 1020.7 |
| 20260901045010 | 72 | 92 | 0.0 | 0.0 | 0.00 | 0.00 | 0.00 | 90 | 1020.7 |
| 20260901044516 | 72 | 92 | 0.0 | 0.0 | 0.00 | 0.00 | 0.00 | 90 | 1020.6 |
| 20260901044007 | 72 | 92 | 0.0 | 0.0 | 0.00 | 0.00 | 0.00 | 90 | 1020.6 |
| 20260901043508 | 72 | 92 | 0.0 | 0.0 | 0.00 | 0.00 | 0.00 | 90 | 1020.5 |
| 20260901043034 | 72 | 92 | 0.0 | 0.0 | 0.00 | 0.00 | 0.00 | 89 | 1020.5 |
| 20260901042518 | 73 | 92 | 0.0 | 0.0 | 0.00 | 0.00 | 0.00 | 89 | 1020.4 |
| 20260901042020 | 73 | 92 | 0.0 | 0.0 | 0.00 | 0.00 | 0.00 | 89 | 1020.5 |
| 20260901041529 | 73 | 92 | 0.0 | 0.0 | 0.00 | 0.00 | 0.00 | 89 | 1020.5 |
| 20260901041002 | 73 | 92 | 0.0 | 0.0 | 0.00 | 0.00 | 0.00 | 88 | 1020.5 |
| 20260901040504 | 73 | 92 | 0.0 | 0.0 | 0.00 | 0.00 | 0.00 | 88 | 1020.5 |
| 20260901040004 | 73 | 92 | 0.0 | 0.0 | 0.00 | 0.00 | 0.00 | 88 | 1020.5 |
| 20260901035502 | 73 | 92 | 0.0 | 0.0 | 0.00 | 0.00 | 0.00 | 88 | 1020.5 |
| 20260901035001 | 73 | 92 | 0.0 | 0.0 | 0.00 | 0.00 | 0.00 | 88 | 1020.5 |
| 20260901034514 | 73 | 92 | 0.0 | 0.0 | 0.00 | 0.00 | 0.00 | 88 | 1020.4 |
| 20260901034007 | 73 | 92 | 0.0 | 0.0 | 0.00 | 0.00 | 0.00 | 88 | 1020.5 |
| 20260901033506 | 73 | 92 | 0.0 | 0.0 | 0.00 | 0.00 | 0.00 | 87 | 1020.6 |
| 20260901033023 | 74 | 92 | 0.0 | 0.0 | 0.00 | 0.00 | 0.00 | 87 | 1020.6 |
| 20260901032507 | 74 | 92 | 0.0 | 0.0 | 0.00 | 0.00 | 0.00 | 87 | 1020.6 |
| 20260901032011 | 74 | 92 | 0.0 | 0.0 | 0.00 | 0.00 | 0.00 | 87 | 1020.6 |
| 20260901031526 | 74 | 92 | 0.0 | 0.0 | 0.00 | 0.00 | 0.00 | 87 | 1020.5 |
| 20260901031012 | 74 | 92 | 0.0 | 0.0 | 0.00 | 0.00 | 0.00 | 87 | 1020.5 |
| 20260901030514 | 74 | 92 | 0.0 | 0.0 | 0.00 | 0.00 | 0.00 | 86 | 1020.5 |
| 20260901030028 | 74 | 92 | 0.0 | 0.0 | 0.00 | 0.00 | 0.00 | 86 | 1020.4 |
| 20260901025514 | 74 | 92 | 0.0 | 0.0 | 0.00 | 0.00 | 0.00 | 85 | 1020.4 |
| 20260901025003 | 75 | 92 | 0.0 | 0.0 | 0.00 | 0.00 | 0.00 | 85 | 1020.3 |
| 20260901024507 | 75 | 92 | 0.0 | 0.0 | 0.00 | 0.00 | 0.00 | 85 | 1020.3 |